FENGYUN 1C DEB, 31235

Orbit data source: Space-Track

FENGYUN 1C DEB, 31235 is space debris in SSO originally from a launch on Mon, 10 May 1999 UTC launched from the Taiyaun Space Center, China (TSC). Fengyun 1C debris stems from the Chinese weather satellite Fengyun-1C, which was intentionally destroyed by a Chinese anti-satellite missile in 2007. This event dramatically increased the amount of space debris, with thousands of trackable fragments posing hazards to satellites and human spaceflight. The Fengyun 1C debris cloud has become a focal point in discussions about space sustainability and the need for international regulations to prevent the creation of new debris.

Loading next visibility...
Identifier
31235, 1999-025BLR
Orbit
SSO
Country
Flag of CNCN / PRC
Related business
Manufacturer
Unknown
Mission
Spacecraft
Bus & Motor
Unknown
Mass
Unknown
Launch date (UTC)
1999-05-10 (27 years ago)
Launch vehicle
Unknown
Launch site
Taiyaun Space Center, China (TSC)
Object type
Payload
Rocket body
Debris
Shape & HBR
Unknown shape, 0.1 m
Radar Cross Section
Small (<0.1 m²)

Expand to show TLE details & history
Last TLE update: 1 day ago

TLE from 1 day ago
0 FENGYUN 1C DEB
1 31235U 99025BLR 26121.35560487  .00002768  00000-0  11147-2 0  9998
2 31235  98.4592 268.8370 0160664 336.2311  23.1504 14.22039775651499
Epoch: 2026-05-01T08:32Z
TLE epoch observation values (Epoch: 2026-05-01T08:32:04.260Z)
Latitude
-0.00004°
Longitude
-78.46979°
Altitude
715.349 km
Speed
7.553 km/s
True Right ascension
17h 55m 20s
True Declination
0° 00' 00"
Sunlit
Object was in full shadow at epoch
Visualization orbit readout
Latitude
Unknown
Longitude
Unknown
Altitude
Unknown
Speed
Unknown
Apparent Right ascension
Unknown
Apparent Declination
Unknown
Sunlit
N/A
Visualization observer readout
Local Sidereal Time
23:55:34
Azimuth
Unknown
Elevation
Unknown
Doppler factor
Unknown
Orbital elements
Apogee altitude
931.183 km
Perigee altitude
700.028 km
Semi-major axis
7,193.743 km
Eccentricity
0.01607
Inclination
98.4592°
RAAN
268.837°
Arg. of periapsis
336.2311°
True anomaly
23.8878°
Mean anomaly
23.1504°
Eccentric anomaly
23.51772°
Mean motion
3.55722 °/min
Orbital period
101.2 mins
BSTAR
0.0011147
Loading maneuver chart data...
Computing Atmospheric mass density...

Documentation

Showing up to 5 results
|